Jaffrey, NH

9:29 AM EST on February 08, 2016 (GMT -0500)
Jaffrey Airport-Silver Ranch

Weather History for KAFN - February, 2013

Change the Weather History Date:

Monday, February 25, 2013

  Actual Average Record
Temperature  
Mean Temperature 24 °F -  
Max Temperature 34 °F 34 °F 48 °F (2002)
Min Temperature 14 °F 16 °F -2 °F (2003)
Degree Days  
Heating Degree Days 41    
Moisture  
Dew Point 25 °F    
Average Humidity 92    
Maximum Humidity 100    
Minimum Humidity 79    
Precipitation  
Precipitation 0.00 in - - ()
Sea Level Pressure  
Sea Level Pressure 30.07 in    
Wind  
Wind Speed 1 mph (NW)    
Max Wind Speed 6 mph    
Max Gust Speed -    
Visibility 6 miles    
Events Fog , Snow    
Averages and records for this station are not official NWS values.
T = Trace of Precipitation, MM = Missing Value Source: NWS Daily Summary

Daily Weather History Graph

Daily Weather History Graph

Search for Another Location

Airport or City:

Trip Planner

Search our weather history database for the weather conditions in past years. The results will help you decide how hot, cold, wet, or windy it might be!

Date:

Astronomy

Feb. 25, 2013 Rise Set
Actual Time 6:29 AM EST 5:32 PM EST
Civil Twilight 6:01 AM EST 6:01 PM EST
Nautical Twilight 5:28 AM EST 6:34 PM EST
Astronomical Twilight 4:55 AM EST 7:06 PM EST
Moon 5:44 PM EST (2/25) 5:57 AM EST (2/25)
Length of Visible Light 11h 59m
Length of Day
11h 02m
Full, 100% of the Moon is Illuminated
Feb 25
Full
Feb 25
Full
Mar 4
Last Quarter
Mar 11
New
Mar 19
First Quarter

Hourly Weather History & Observations

Time (EST) Temp. Windchill Dew Point Humidity Pressure Visibility Wind Dir Wind Speed Gust Speed Precip Events Conditions
12:06 AM 30.2 °F - 28.4 °F 93% 29.87 in 6.0 mi Calm Calm - 0.00 in Snow Light Snow
12:52 AM 30.0 °F 26.5 °F 27.0 °F 88% 29.94 in 10.0 mi NNW 3.5 mph - 0.00 in   Overcast
1:09 AM 30.2 °F - 26.6 °F 86% 29.89 in 10.0 mi Calm Calm - N/A   Overcast
1:52 AM 30.0 °F 26.5 °F 26.1 °F 85% 29.96 in 10.0 mi Variable 3.5 mph - N/A   Overcast
2:52 AM 28.0 °F - 26.1 °F 92% 29.96 in 10.0 mi Calm Calm - N/A   Overcast
3:39 AM 28.4 °F 22.2 °F 24.8 °F 86% 29.92 in 10.0 mi North 5.8 mph - N/A   Overcast
3:52 AM 28.0 °F 24.2 °F 25.0 °F 88% 29.98 in 10.0 mi Variable 3.5 mph - N/A   Scattered Clouds
4:52 AM 25.0 °F - 24.1 °F 96% 30.00 in 8.0 mi Calm Calm - N/A   Clear
5:07 AM 21.2 °F - 21.2 °F 100% 29.95 in 1.0 mi Calm Calm - N/A   Clear
5:14 AM 21.2 °F - 19.4 °F 93% 29.95 in 0.5 mi Calm Calm - N/A Fog Light Freezing Fog
5:44 AM 17.6 °F - 15.8 °F 93% 29.96 in 1.2 mi Calm Calm - N/A   Clear
5:50 AM 19.4 °F - 17.6 °F 93% 29.96 in 0.8 mi Calm Calm - N/A   Clear
5:52 AM 19.0 °F - 17.1 °F 92% 30.02 in 0.5 mi Calm Calm - N/A Fog Light Freezing Fog
6:08 AM 19.4 °F - 17.6 °F 93% 29.97 in 0.2 mi Calm Calm - N/A Fog Light Freezing Fog
6:21 AM 14.0 °F 8.2 °F 12.2 °F 93% 29.98 in 1.0 mi South 3.5 mph - N/A   Clear
6:23 AM 15.8 °F - 14.0 °F 93% 29.98 in 1.5 mi Calm Calm - N/A   Clear
6:44 AM 15.8 °F - 15.8 °F 100% 29.99 in 2.0 mi Calm Calm - N/A   Mostly Cloudy
6:52 AM 18.0 °F - 16.0 °F 92% 30.06 in 6.0 mi Calm Calm - N/A   Mostly Cloudy
7:52 AM 23.0 °F - 23.0 °F 100% 30.07 in 7.0 mi Calm Calm - N/A   Overcast
8:52 AM 27.0 °F - 26.1 °F 96% 30.08 in 9.0 mi Calm Calm - N/A   Overcast
9:52 AM 33.1 °F - 28.9 °F 85% 30.10 in 10.0 mi Calm Calm - N/A   Overcast
10:52 AM 33.1 °F 30.0 °F 28.0 °F 82% 30.10 in 10.0 mi Variable 3.5 mph - N/A   Overcast
11:52 AM 34.0 °F - 28.0 °F 79% 30.11 in 10.0 mi Calm Calm - N/A   Overcast
12:52 PM 33.1 °F 30.0 °F 28.0 °F 82% 30.12 in 10.0 mi NW 3.5 mph - N/A   Overcast
1:52 PM 33.1 °F 28.7 °F 28.0 °F 82% 30.15 in 10.0 mi WNW 4.6 mph - N/A   Overcast
2:52 PM 33.1 °F 28.7 °F 28.0 °F 82% 30.16 in 10.0 mi NW 4.6 mph - N/A   Overcast
3:52 PM 33.1 °F - 28.9 °F 85% 30.17 in 10.0 mi Calm Calm - N/A   Overcast
4:52 PM 33.1 °F - 30.9 °F 92% 30.18 in 9.0 mi Calm Calm - N/A   Overcast
5:52 PM 32.0 °F - 30.0 °F 92% 30.19 in 8.0 mi Calm Calm - N/A   Overcast
6:52 PM 30.9 °F - 30.0 °F 96% 30.22 in 7.0 mi Calm Calm - N/A   Overcast
7:22 PM 30.2 °F 26.7 °F 30.2 °F 100% 30.17 in 7.0 mi SSE 3.5 mph - N/A   Overcast
7:52 PM 30.9 °F - 30.0 °F 96% 30.24 in 6.0 mi Calm Calm - N/A   Overcast
8:03 PM 30.2 °F - 30.2 °F 100% 30.17 in 7.0 mi Calm Calm - N/A   Overcast
8:14 PM 30.2 °F - 30.2 °F 100% 30.17 in 5.0 mi Calm Calm - N/A   Overcast
8:52 PM 30.9 °F - 30.0 °F 96% 30.24 in 6.0 mi Calm Calm - N/A   Overcast
9:52 PM 30.0 °F - 30.0 °F 100% 30.23 in 4.0 mi Calm Calm - N/A   Overcast
10:52 PM 30.9 °F - 30.0 °F 96% 30.23 in 6.0 mi Calm Calm - N/A   Overcast
11:52 PM 30.0 °F - 28.9 °F 96% 30.25 in 7.0 mi Calm Calm - N/A   Overcast